Regional Weather Roundup
Issued by NWS

Home | Current Version | Previous Version | Graphics & Text | Print | Product List | Glossary On
Versions: 1 2 3 4 5 6 7 8 9 10 11 12 13 14 15 16 17 18 19 20 21 22 23 24 25 26 27 28 29 30 31 32 33 34 35 36 37 38 39 40 41 42 43 44 45 46 47 48 49 50
906
ASUS45 KTFX 310010
RWRMT
MONTANA REGIONAL WEATHER ROUNDUP
NATIONAL WEATHER SERVICE GREAT FALLS MT
600 PM MDT SAT JUL 30 2016

NOTE: "FAIR" INDICATES FEW OR NO CLOUDS BELOW 12000 FEET WITH NO
SIGNIFICANT WEATHER AND/OR OBSTRUCTIONS TO VISIBILITY.

MTZ001>007-043-310100-
WEST OF THE DIVIDE

CITY           SKY/WX    TMP DP  RH WIND       PRES   REMARKS
KALISPELL      SUNNY     91  37  15 W16G26    29.68F
MISSOULA       SUNNY     93  39  15 W18G29    29.74S
BUTTE          SUNNY     89  32  13 W15G23    29.86F
MULLAN PASS    SUNNY     71  38  29 VRB6G20   29.98F
DEER LODGE       N/A     90  39  17 NW8       29.81F
EUREKA           N/A     90  39  17 SW17G23   29.69S
HAMILTON         N/A     90  46  22 W10       29.74S
LIBBY            N/A     90  43  19 S3        29.70F
RONAN            N/A     92  44  18 S12       29.80S
$$

MTZ008-052>055-310100-
SOUTHWEST MONTANA

CITY           SKY/WX    TMP DP  RH WIND       PRES   REMARKS
BOZEMAN        SUNNY     93  44  18 NE6       29.77F
DILLON         SUNNY     84  47  27 SW15      29.82F
W YELLOWSTONE  MOSUNNY   77  39  25 SW21G31   30.05S
ENNIS          MOSUNNY   86  41  20 S17       29.93S
THREE FORKS      N/A     96 N/A N/A NW6       29.77F
$$

MTZ009-010-012-014-046-048-049-054-310100-
EAST SLOPES AND CENTRAL MONTANA

CITY           SKY/WX    TMP DP  RH WIND       PRES   REMARKS
CUT BANK         N/A     89  39  17 SW23G30   29.70F
GREAT FALLS    SUNNY     94  29  10 SW18      29.70F
MALMSTROM AFB  SUNNY     93  32  11 W17G24    29.69F
HELENA         SUNNY     97  35  11 W18G24    29.71F HX  92
CHOTEAU          N/A     91  36  14 W12G20    29.73F
$$

MTZ011-013-016-021-045-047-050-051-310100-
NORTH CENTRAL MONTANA

CITY           SKY/WX    TMP DP  RH WIND       PRES   REMARKS
HAVRE          MOSUNNY   92  51  24 S5        29.64F
LEWISTOWN      SUNNY     91  47  21 N7        29.77F
N BAR RANCH      N/A     90  41  18 N8        29.80F
CHINOOK          N/A     93  54  26 W5        29.64F HX  91
$$

MTZ017>020-022>027-061-062-310100-
NORTHEAST MONTANA

CITY           SKY/WX    TMP DP  RH WIND       PRES   REMARKS
GLASGOW        SUNNY     90  54  29 SE12      29.68F
JORDAN           N/A     94  50  22 SE13      29.69F HX  91
SIDNEY         SUNNY     90  51  26 E6        29.74F
WOLF POINT     SUNNY     92  51  24 SE8       29.71F
PLENTYWOOD       N/A     90  45  20 S3        29.78S
POPLAR           N/A     90  48  24 SE7       29.73F
$$

MTZ028>42-056>058-310100-
SOUTHCENTRAL AND SOUTHEAST MONTANA

CITY           SKY/WX    TMP DP  RH WIND       PRES   REMARKS
BAKER          SUNNY     90  54  29 E9        29.78F
BILLINGS       MOSUNNY   96  40  14 S7G21     29.72F HX  92
LIVINGSTON     SUNNY     95  34  11 W15       29.78F HX  90
MILES CITY     SUNNY     97  44  16 VRB5      29.69F HX  93
FORSYTH          N/A     99  46  16 E5        29.67F HX  95
LAUREL           N/A     97  47  18 E2        29.75F HX  93
$$

REGIONAL REPORTS...DAKOTAS

CITY           SKY/WX    TMP DP  RH WIND       PRES   REMARKS
WILLISTON      SUNNY     89  55  31 E16G22    29.77F
MINOT          SUNNY     87  60  40 CALM      29.80F
DICKINSON      SUNNY     86  53  32 NE7       29.79F
CROSBY           N/A     82  57  42 SE5       29.82S
WATFORD CITY   PTSUNNY   86  54  32 SE12      29.78F
BISMARCK       SUNNY     85  65  51 SE10      29.80F
GRAND FORKS    CLOUDY    81  61  50 S16G23    29.88F
FARGO          MOSUNNY   80  59  48 SE15G23   29.91F
BUFFALO SD       N/A     92  49  22 SE9       29.72F
RAPID CITY     CLOUDY    87  53  31 SE12      29.78F
$$

REGIONAL REPORTS...WYOMING/IDAHO/WASHINGTON

CITY           SKY/WX    TMP DP  RH WIND       PRES   REMARKS
GILLETTE       CLOUDY    74  57  55 E13       29.84S
SHERIDAN       SUNNY     97  38  13 CALM      29.76F HX  92
BUFFALO WY     SUNNY     94  38  14 N9        29.85F
CODY           CLOUDY    84  41  21 SW16      29.89F
YELLOWSTONE LA   N/A     70  41  34 CALM      30.17F
IDAHO FALLS    MOSUNNY   92  43  18 S14G24    29.88F
SALMON         SUNNY     91  39  16 SW13      29.72S
BOISE          SUNNY     99  37  11 NW13G21   29.74F HX  94
SPOKANE        MOSUNNY   91  33  12 W22G32    29.72F
$$

REGIONAL REPORTS...ALBERTA

CITY           SKY/WX    TMP DP  RH WIND       PRES   REMARKS
EDMONTON       RAIN      59  54  82 W17G24    29.75R
CALGARY        TSTM      57  55  94 NE8       29.78R
MEDICINE HAT   MOSUNNY   93  52  24 SE5       29.63F HX  90
WATERTON GATE    N/A     84  43  23 SW13G21     N/A
ONEFOUR          N/A     90  39  17 N7          N/A
$$

REGIONAL REPORTS...SASKATCHEWAN

CITY           SKY/WX    TMP DP  RH WIND       PRES   REMARKS
SWIFT CURRENT  SUNNY     75  59  57 SE17G25   29.71F
REGINA         PTSUNNY   79  63  57 S5        29.76F
SASKATOON      PTSUNNY   70  64  83 SE8       29.72R
CYPRESS HILLS    N/A     81  52  36 NW2         N/A
VAL MARIE        N/A     64  59  82 W41G67      N/A
ROCKGLEN         N/A     72  57  60 N7          N/A
ASSINIBOIA       N/A    N/A N/A N/A SE5         N/A
$$




USA.gov is the U.S. government's official web portal to all federal, state and local government web resources and services.